Wind_Speed
38 37 36 37 37 35 34 34 32 32 29 31 29 27 26 25 24 27 27 29 30 30 32 35 39 36 30 21 12 5 11 3 5 10 9 11 7 9 13 16 21 24 26 25 23
40 38 36 38 37 35 34 34 32 30 29 31 29 27 26 26 24 25 27 27 28 29 30 32 36 33 26 18 11 4 3 7 16 10 9 5 9 14 15 16 20 18 24 26 27
41 40 37 38 39 38 35 34 33 30 30 29 29 29 29 27 27 25 26 25 27 27 29 29 32 30 24 15 9 1 6 15 4 6 6 7 9 13 17 17 16 13 18 20 20
43 41 39 38 38 39 38 36 33 31 30 29 28 29 29 29 27 25 24 24 25 24 26 26 28 28 22 13 7 5 7 7 8 10 12 10 10 14 12 18 16 15 15 19 19
44 42 41 39 37 38 37 37 35 35 32 31 29 28 32 26 26 24 23 22 24 23 23 23 25 25 17 14 9 7 7 9 10 9 9 12 13 14 15 17 18 20 18 23 26
45 43 43 42 40 39 36 36 37 36 33 32 31 29 32 28 24 22 20 21 24 22 21 21 20 21 15 13 8 9 5 6 10 11 12 11 11 12 16 21 20 21 17 16 26
50 46 45 45 45 42 39 38 38 36 34 34 34 31 33 32 27 23 20 20 22 20 19 20 20 18 16 12 7 7 3 6 5 4 12 15 12 10 14 14 13 9 13 17 19
56 52 48 48 47 45 42 41 39 37 35 34 34 33 30 32 30 26 23 21 22 21 17 16 19 16 11 9 4 5 1 8 16 11 9 14 11 13 12 10 9 1 8 13 16
52 53 51 52 49 47 46 45 41 39 36 34 35 33 25 25 27 30 28 24 21 21 16 15 15 13 10 6 2 6 8 7 11 4 7 13 5 14 17 11 10 8 10 21 24
48 48 48 50 51 48 47 45 46 42 39 35 35 34 27 26 25 27 31 27 23 21 16 15 12 9 7 5 5 12 9 9 14 3 5 2 6 14 20 11 4 3 7 7 9
50 49 46 46 47 49 49 48 46 47 44 40 34 36 29 28 29 27 26 29 21 22 16 14 13 8 5 12 14 12 18 8 7 6 8 3 3 11 19 13 7 1 2 2 4
56 54 52 49 47 47 45 47 49 48 44 41 38 34 34 31 31 31 28 25 21 22 16 15 11 10 11 14 16 18 12 11 15 14 8 3 6 8 18 10 6 4 2 2 3
63 61 59 56 52 51 50 47 46 47 46 40 38 34 34 34 31 29 27 27 23 24 19 16 12 10 9 10 12 15 12 11 17 12 8 8 5 13 17 13 7 4 6 4 4
67 66 64 62 58 57 54 52 49 49 48 40 37 37 38 34 37 29 24 28 31 23 20 15 14 11 8 10 8 9 13 26 16 12 11 6 13 13 15 18 11 8 8 8 6
73 71 67 65 65 59 59 53 52 52 50 47 39 35 38 38 30 31 25 30 29 25 23 15 15 12 9 11 13 12 18 18 19 11 15 6 5 11 10 20 15 12 10 9 8
74 74 70 68 64 64 61 58 55 53 58 47 41 35 36 35 35 31 33 31 29 31 26 20 16 15 11 19 16 15 14 11 15 10 14 9 10 12 11 11 10 19 12 9 9
65 66 68 63 64 67 65 64 59 64 56 54 47 37 32 34 33 35 33 34 33 29 22 21 16 16 18 18 19 16 12 6 10 14 10 13 15 12 15 7 18 20 14 19 20
56 60 63 61 67 70 70 69 69 66 59 58 51 39 35 35 35 33 33 36 36 33 25 25 20 19 17 19 16 17 13 14 13 14 15 15 16 9 18 19 13 18 22 24 30
47 43 53 63 69 74 78 76 75 64 59 56 49 42 36 39 38 35 34 36 36 32 33 26 22 22 22 22 25 17 21 16 25 22 20 13 13 15 16 19 19 20 21 23 22
47 47 41 46 67 71 81 83 69 63 58 59 53 45 42 43 42 41 39 38 39 35 30 30 23 29 24 26 28 27 19 24 27 20 19 15 16 16 11 18 20 19 20 22 19
48 49 47 49 51 60 79 82 67 65 60 59 52 50 48 42 42 42 39 41 41 40 41 32 30 29 31 25 28 30 28 25 21 20 19 16 14 13 23 18 23 19 18 23 23
54 52 49 57 60 56 62 72 66 65 66 65 59 55 55 50 46 43 41 42 43 41 44 36 34 34 30 24 24 24 26 25 27 23 27 31 25 21 19 19 21 20 24 22 24
64 60 56 60 62 57 47 48 68 73 68 65 62 60 53 49 47 46 43 43 42 46 44 36 41 35 29 26 28 32 27 26 26 28 33 27 23 18 20 19 19 19 22 21 21
70 69 65 64 56 57 53 35 52 74 72 69 67 59 54 42 56 47 48 44 47 45 37 39 42 37 33 25 21 25 29 28 30 32 31 33 26 19 18 21 24 22 28 25 23
76 75 68 64 60 54 56 48 50 68 74 71 71 69 59 53 52 53 47 39 39 40 43 47 44 40 35 31 24 21 22 26 29 29 29 23 25 23 24 26 24 28 33 25 25
77 72 67 60 56 57 53 54 48 59 71 75 72 68 50 43 37 38 45 51 43 47 47 48 46 40 35 34 31 31 33 30 29 28 32 29 27 25 24 31 30 30 30 29 28
74 70 67 62 60 62 58 50 49 50 66 71 71 67 60 41 36 48 36 49 51 51 50 51 47 44 42 35 31 41 33 30 28 28 28 29 25 23 26 28 29 29 31 29 31
Wind_Direction
269 267 267 266 265 262 263 266 269 271 276 278 279 283 291 299 302 307 311 312 312 317 327 338 339 339 342 345 353 354 75 258 264 244 299 261 262 264 253 253 245 245 249 249 250
268 268 268 267 267 266 265 264 262 265 271 276 278 280 285 293 299 304 306 310 311 319 329 342 339 340 337 348 343 351 105 246 239 242 238 274 253 258 260 256 252 249 257 244 245
265 266 265 268 269 268 266 264 264 265 267 271 278 278 283 290 285 296 303 307 309 318 330 343 338 342 337 345 333 269 149 252 261 200 240 251 262 264 258 278 243 252 253 234 240
264 263 264 264 267 269 269 266 266 266 268 271 273 276 278 287 286 295 300 303 308 317 331 344 338 343 339 339 309 246 246 233 210 216 241 257 274 291 290 271 284 279 260 243 235
261 261 262 264 264 266 269 270 267 266 265 267 267 272 279 281 289 294 300 304 304 313 328 340 338 341 336 319 299 262 239 228 217 218 242 256 269 293 293 291 285 278 267 251 244
260 260 260 261 263 263 264 267 267 266 263 262 266 271 272 275 278 290 300 300 301 309 324 335 338 338 325 308 283 267 223 225 230 236 257 265 278 302 305 296 289 284 262 246 243
256 257 259 261 262 262 263 264 267 267 266 265 268 272 274 270 269 280 289 294 293 302 318 332 334 338 324 303 288 247 145 322 274 230 253 270 246 305 323 301 296 284 260 222 224
256 257 258 260 260 262 263 263 265 265 264 266 265 267 274 280 259 271 280 286 290 297 308 328 328 338 324 302 280 233 5 332 325 253 256 289 96 339 323 326 14 311 96 151 195
256 256 258 259 261 259 261 264 264 265 263 262 266 269 275 273 268 265 273 279 284 290 303 319 324 340 325 311 262 282 271 290 316 65 308 293 351 327 324 337 32 27 31 89 96
256 258 258 258 259 260 258 259 262 263 263 263 262 264 267 268 271 271 266 269 278 282 294 307 318 331 314 250 179 233 254 277 325 322 316 311 280 293 316 327 22 13 351 43 106
260 259 256 256 255 257 259 260 259 261 264 261 259 261 258 268 266 267 276 258 268 274 285 299 313 313 286 255 200 223 221 233 273 245 286 219 303 291 310 326 294 348 349 7 110
258 257 257 256 256 257 257 258 258 258 258 260 257 253 259 257 262 268 275 256 260 267 277 288 297 288 257 244 235 213 222 224 247 253 271 204 270 300 295 332 340 235 285 213 226
255 256 256 254 253 255 257 259 259 258 256 253 254 248 255 252 255 263 269 258 250 255 266 276 277 272 271 239 229 210 210 236 228 258 288 281 280 269 297 311 303 313 216 234 222
254 253 253 254 252 250 251 254 256 257 256 253 250 247 245 256 249 261 257 251 247 249 253 263 270 258 263 219 219 229 250 223 225 232 262 253 261 217 274 303 290 284 245 247 246
258 257 253 250 252 249 249 251 251 252 255 256 247 250 244 248 254 248 248 248 250 251 253 251 260 248 245 210 216 218 236 243 228 234 249 230 256 285 266 299 280 274 283 264 259
257 253 253 252 250 247 247 247 247 246 251 251 253 244 245 240 245 241 243 242 236 241 243 247 250 247 213 214 215 213 229 227 236 240 246 204 224 280 243 301 273 295 286 289 286
253 252 251 246 242 242 241 240 239 245 248 250 249 246 240 238 237 240 240 244 242 246 245 240 241 241 227 214 220 228 235 218 239 229 239 227 234 232 234 245 239 235 270 287 289
246 239 240 238 230 234 234 234 237 248 249 248 250 246 238 237 237 232 233 236 231 234 228 235 238 244 231 217 225 238 222 220 247 212 245 226 247 249 234 246 267 257 258 262 279
249 244 239 231 228 230 230 226 243 242 245 246 247 244 239 236 236 235 235 237 236 238 225 232 230 249 227 221 219 214 240 209 232 240 212 222 269 242 265 251 259 252 265 256 266
246 247 243 242 235 233 231 230 234 230 231 238 240 236 233 235 233 235 234 236 231 229 219 226 218 240 241 226 226 216 225 224 220 233 248 255 242 252 248 267 272 269 260 259 256
247 250 242 239 240 234 231 230 230 225 226 229 228 228 226 226 229 230 233 235 230 229 224 218 218 229 244 235 228 226 224 227 230 238 243 236 246 220 243 274 275 265 263 255 253
250 252 248 241 238 240 240 234 225 224 224 222 220 221 224 225 228 226 228 233 233 227 228 214 223 225 242 239 226 229 238 232 237 231 249 252 244 248 258 279 286 276 276 259 252
248 248 245 243 241 240 240 239 231 227 222 223 222 218 220 219 223 225 225 227 228 222 226 211 222 226 230 237 229 219 213 225 235 242 240 255 250 265 251 277 286 282 276 269 256
240 241 238 241 244 240 238 232 230 228 227 224 219 218 207 213 220 221 224 223 228 225 205 217 229 231 237 240 256 235 234 232 238 242 247 246 254 252 275 290 287 279 275 266 266
235 237 239 245 243 239 236 228 227 222 222 227 226 222 218 216 214 221 221 221 219 210 211 216 221 225 226 230 223 240 246 238 237 243 248 250 251 250 266 262 261 257 266 264 262
231 230 234 239 236 236 236 232 233 219 225 222 225 230 214 218 215 216 238 222 209 209 210 221 223 224 228 230 226 223 229 233 234 249 249 250 251 242 255 259 271 270 267 263 263
226 225 228 226 228 228 229 224 227 229 221 222 223 229 229 208 218 213 232 228 216 210 207 217 220 226 226 233 232 231 233 234 240 242 250 252 258 254 260 270 267 267 270 266 266
Height
5808 5809 5811 5812 5813 5813 5814 5816 5816 5817 5816 5817 5816 5815 5813 5812 5810 5808 5806 5804 5800 5797 5793 5788 5784 5778 5772 5768 5765 5766 5769 5775 5773 5772 5766 5764 5765 5763 5763 5762 5762 5762 5762 5763 5765
5801 5802 5804 5805 5806 5807 5807 5808 5809 5810 5811 5811 5810 5809 5808 5807 5805 5804 5802 5800 5797 5794 5790 5785 5781 5776 5771 5767 5766 5767 5773 5772 5768 5767 5765 5765 5763 5762 5761 5759 5759 5759 5758 5760 5761
5793 5794 5795 5797 5799 5800 5802 5802 5803 5803 5804 5804 5804 5804 5803 5802 5801 5800 5798 5796 5793 5790 5787 5783 5780 5775 5770 5767 5766 5767 5769 5766 5767 5763 5762 5762 5760 5759 5758 5757 5753 5756 5754 5755 5756
5785 5786 5787 5790 5791 5793 5795 5796 5797 5797 5798 5798 5798 5799 5797 5797 5796 5795 5794 5792 5789 5787 5785 5781 5777 5773 5769 5767 5765 5765 5764 5763 5761 5760 5760 5760 5759 5757 5756 5755 5754 5753 5753 5752 5753
5776 5778 5780 5782 5783 5785 5788 5790 5791 5791 5792 5793 5792 5792 5792 5792 5792 5791 5789 5788 5786 5784 5782 5779 5775 5771 5768 5766 5764 5763 5761 5760 5759 5758 5758 5758 5757 5755 5754 5753 5751 5749 5747 5747 5747
5765 5768 5771 5773 5775 5777 5780 5782 5783 5784 5785 5786 5785 5786 5786 5786 5786 5786 5785 5783 5782 5781 5779 5776 5773 5769 5766 5765 5763 5762 5760 5758 5758 5757 5757 5755 5752 5752 5750 5747 5745 5743 5741 5742 5740
5755 5757 5760 5764 5766 5768 5771 5773 5774 5777 5778 5780 5779 5779 5780 5780 5781 5781 5781 5779 5778 5777 5776 5774 5771 5768 5764 5763 5762 5762 5761 5760 5759 5756 5755 5753 5748 5751 5748 5745 5742 5740 5736 5735 5727
5744 5747 5749 5753 5756 5758 5761 5763 5766 5769 5770 5771 5772 5772 5774 5774 5774 5775 5776 5775 5774 5774 5773 5771 5768 5766 5762 5762 5761 5763 5763 5762 5761 5758 5755 5752 5748 5750 5749 5746 5742 5738 5734 5733 5730
5733 5736 5739 5742 5745 5748 5751 5754 5758 5760 5762 5763 5766 5765 5767 5769 5768 5770 5770 5771 5770 5769 5770 5768 5765 5763 5761 5761 5762 5764 5766 5764 5758 5757 5759 5754 5739 5749 5750 5748 5743 5741 5738 5735 5736
5721 5724 5728 5731 5734 5737 5740 5744 5747 5751 5754 5755 5758 5761 5762 5763 5762 5763 5764 5765 5766 5765 5766 5766 5763 5760 5759 5760 5766 5768 5768 5765 5760 5758 5758 5760 5757 5752 5752 5750 5748 5745 5744 5743 5743
5709 5713 5717 5721 5722 5726 5730 5734 5738 5741 5744 5747 5751 5753 5755 5757 5757 5757 5758 5760 5761 5762 5762 5762 5760 5758 5757 5760 5761 5763 5765 5766 5761 5759 5758 5759 5759 5754 5753 5751 5749 5748 5748 5747 5747
5697 5702 5705 5711 5713 5715 5718 5722 5726 5730 5735 5738 5741 5746 5747 5749 5751 5751 5754 5756 5756 5757 5759 5759 5757 5756 5755 5755 5755 5757 5761 5764 5762 5759 5759 5758 5761 5758 5753 5751 5750 5751 5750 5750 5750
5682 5688 5693 5698 5702 5705 5708 5711 5715 5718 5721 5731 5733 5738 5740 5741 5743 5746 5749 5751 5750 5751 5753 5755 5754 5753 5752 5752 5752 5754 5758 5761 5761 5757 5756 5757 5758 5759 5753 5752 5751 5751 5752 5751 5752
5666 5673 5678 5685 5690 5693 5697 5700 5704 5708 5711 5721 5725 5728 5731 5734 5734 5741 5743 5745 5743 5748 5748 5751 5750 5750 5749 5750 5750 5754 5753 5753 5755 5756 5759 5756 5757 5755 5755 5752 5751 5751 5750 5751 5752
5646 5654 5662 5670 5673 5682 5683 5689 5692 5698 5702 5707 5716 5721 5723 5726 5733 5732 5736 5735 5739 5743 5743 5747 5746 5746 5746 5747 5749 5753 5751 5750 5752 5755 5755 5757 5757 5753 5755 5752 5750 5751 5751 5751 5752
5625 5634 5642 5652 5659 5664 5671 5675 5678 5687 5688 5696 5703 5712 5715 5718 5721 5725 5727 5729 5734 5734 5736 5741 5742 5742 5743 5744 5744 5747 5747 5747 5749 5752 5753 5754 5756 5752 5753 5753 5753 5749 5750 5751 5752
5603 5610 5621 5633 5643 5644 5651 5657 5663 5669 5681 5687 5695 5702 5708 5709 5712 5715 5720 5721 5725 5728 5731 5735 5736 5738 5739 5740 5742 5743 5745 5747 5751 5750 5751 5752 5752 5752 5751 5752 5751 5751 5751 5747 5749
5583 5590 5601 5614 5622 5624 5630 5637 5643 5666 5671 5676 5683 5693 5700 5704 5705 5707 5711 5714 5718 5722 5726 5728 5730 5732 5735 5736 5740 5741 5744 5745 5742 5747 5750 5746 5748 5750 5749 5747 5748 5747 5748 5748 5744
5570 5577 5586 5597 5602 5603 5605 5607 5632 5653 5662 5669 5676 5684 5691 5694 5698 5700 5704 5708 5713 5717 5719 5723 5726 5727 5728 5731 5734 5738 5738 5744 5741 5742 5744 5747 5747 5746 5745 5745 5744 5744 5743 5743 5743
5561 5566 5577 5578 5581 5583 5581 5591 5623 5639 5650 5655 5665 5675 5681 5684 5689 5692 5696 5700 5704 5709 5712 5717 5722 5721 5722 5724 5727 5731 5735 5737 5737 5738 5739 5743 5744 5745 5740 5740 5739 5739 5738 5738 5737
5548 5553 5565 5565 5561 5558 5562 5585 5616 5627 5635 5643 5655 5662 5670 5675 5678 5683 5690 5694 5697 5702 5704 5710 5714 5717 5715 5718 5721 5726 5727 5730 5734 5735 5735 5737 5741 5735 5737 5736 5734 5734 5734 5734 5734
5534 5541 5548 5546 5546 5551 5560 5586 5610 5618 5619 5625 5637 5648 5657 5665 5668 5673 5679 5684 5689 5695 5694 5701 5706 5708 5711 5712 5716 5721 5721 5725 5726 5730 5729 5730 5732 5731 5732 5730 5730 5729 5729 5729 5730
5517 5526 5530 5529 5536 5549 5561 5574 5592 5599 5603 5614 5625 5634 5645 5653 5659 5664 5669 5674 5680 5683 5687 5695 5696 5700 5705 5707 5708 5710 5715 5719 5722 5723 5721 5722 5727 5725 5726 5726 5724 5724 5724 5724 5725
5496 5503 5512 5516 5534 5541 5555 5567 5571 5583 5594 5602 5610 5622 5633 5642 5648 5654 5659 5664 5667 5674 5680 5687 5689 5693 5698 5704 5706 5705 5709 5711 5714 5714 5714 5715 5720 5722 5721 5722 5722 5720 5716 5718 5718
5470 5480 5501 5510 5526 5538 5539 5554 5555 5562 5575 5592 5599 5608 5620 5628 5637 5643 5648 5656 5659 5664 5670 5675 5677 5684 5691 5695 5700 5703 5703 5704 5706 5708 5709 5712 5714 5716 5718 5717 5716 5714 5711 5712 5712
5447 5467 5486 5503 5516 5519 5528 5538 5547 5554 5565 5574 5589 5602 5612 5620 5630 5635 5639 5645 5648 5653 5663 5668 5670 5675 5682 5686 5690 5694 5697 5698 5701 5703 5702 5704 5707 5711 5709 5708 5707 5706 5705 5706 5706
5432 5459 5471 5488 5498 5502 5518 5533 5540 5548 5553 5567 5581 5591 5602 5618 5620 5627 5626 5634 5639 5643 5651 5658 5663 5668 5672 5679 5682 5679 5684 5687 5691 5694 5696 5695 5700 5701 5702 5701 5700 5700 5699 5699 5698